Voltar ao catálogo

STARLINK-5377

AtivoComunicaçõesVLEO
NORAD 56141·PAYLOAD·🇺🇸 United States

Lançado Mar 29, 2023 de Cape Canaveral Space Force Station

Loading…

Próximas Passagens (próximas 24 horas)

TLE

AtualizadoSource: CelesTrak SupGP

Época: Sep 15, 2026, 01:24 UTC

1 56141C 23046BA  26258.05881944 -.00008542  00000+0 -30949-3 0  2580
2 56141  43.0001 157.5033 0001229 252.6991  47.9809 15.27573754    13

Acompanhe STARLINK-5377 em tempo real com AllMySat

Download on the App Store